Weather History for Tekamah, NE

Change the Weather History Date:

Sunday, July 21, 2013

  Actual Average Record
Temperature  
Mean Temperature 78 °F -  
Max Temperature 91 °F 87 °F 105 °F (1974)
Min Temperature 66 °F 63 °F 48 °F (1970)
Cooling Degree Days 13    
Growing Degree Days 28 (Base 50)    
Moisture  
Dew Point 67 °F    
Average Humidity 75    
Maximum Humidity 94    
Minimum Humidity 50    
Precipitation  
Precipitation 0.00 in - - ()
Sea Level Pressure  
Sea Level Pressure 29.81 in    
Wind  
Wind Speed 2 mph (South)    
Max Wind Speed 10 mph    
Max Gust Speed -    
Visibility 8 miles    
Events Rain    
Averages and records for this station are not official NWS values.
T = Trace of Precipitation, MM = Missing Value Source: NWS Daily Summary

Daily Weather History Graph

Daily Weather History Graph

Search for Another Location

Airport:

Trip Planner

Search our weather history database for the weather conditions in past years. The results will help you decide how hot, cold, wet, or windy it might be!

Date:

Astronomy

Jul. 21, 2013 Rise Set
Actual Time 6:08 AM CDT 8:53 PM CDT
Civil Twilight 5:36 AM CDT 9:25 PM CDT
Nautical Twilight 4:55 AM CDT 10:06 PM CDT
Astronomical Twilight 4:08 AM CDT 10:52 PM CDT
Moon 7:51 PM CDT (7/21) 4:55 AM CDT (7/21)
Length of Visible Light 15h 49m
Length of Day
14h 44m
Waxing Gibbous, 98% of the Moon is Illuminated
Jul 21
Waxing Gibbous
Jul 22
Full
Jul 29
Last Quarter
Aug 6
New
Aug 14
First Quarter

Hourly Weather History & Observations

Time (CDT) Temp. Heat Index Dew Point Humidity Pressure Visibility Wind Dir Wind Speed Gust Speed Precip Events Conditions
12:54 AM 66.9 °F - 64.0 °F 90% 29.88 in 7.0 mi South 3.5 mph - N/A   Clear
1:54 AM 66.9 °F - 63.0 °F 87% 29.87 in 6.0 mi Calm Calm - N/A   Clear
2:54 AM 66.9 °F - 64.9 °F 93% 29.87 in 6.0 mi WNW 3.5 mph - N/A   Mostly Cloudy
3:54 AM 69.1 °F - 66.0 °F 90% 29.84 in 5.0 mi Calm Calm - 0.00 in   Scattered Clouds
4:54 AM 69.1 °F - 66.0 °F 90% 29.81 in 6.0 mi Calm Calm - 0.00 in Rain Light Rain
5:54 AM 66.9 °F - 64.9 °F 93% 29.81 in 4.0 mi NW 4.6 mph - 0.00 in   Clear
6:41 AM 66.2 °F - 64.4 °F 94% 29.87 in 2.5 mi NNW 3.5 mph - N/A   Clear
6:54 AM 66.9 °F - 64.9 °F 93% 29.84 in 3.0 mi Calm Calm - N/A   Clear
7:54 AM 70.0 °F - 66.9 °F 90% 29.84 in 4.0 mi Calm Calm - N/A   Clear
8:54 AM 73.9 °F - 68.0 °F 82% 29.85 in 6.0 mi Calm Calm - N/A   Haze
9:54 AM 79.0 °F - 68.0 °F 69% 29.85 in 8.0 mi Calm Calm - N/A   Clear
10:54 AM 81.0 °F 83.8 °F 68.0 °F 65% 29.83 in 9.0 mi Calm Calm - N/A   Clear
11:36 AM 82.4 °F 85.4 °F 68.0 °F 62% 29.86 in 10.0 mi Calm Calm - N/A   Mostly Cloudy
11:54 AM 82.9 °F 86.5 °F 69.1 °F 63% 29.82 in 10.0 mi SSE 3.5 mph - N/A   Scattered Clouds
12:54 PM 84.9 °F 89.4 °F 70.0 °F 61% 29.81 in 10.0 mi Variable 3.5 mph - N/A   Mostly Cloudy
1:54 PM 87.1 °F 91.3 °F 69.1 °F 55% 29.78 in 10.0 mi SW 3.5 mph - N/A   Scattered Clouds
2:54 PM 87.1 °F 91.3 °F 69.1 °F 55% 29.76 in 10.0 mi Calm Calm - N/A   Scattered Clouds
3:54 PM 89.1 °F 93.7 °F 69.1 °F 52% 29.75 in 10.0 mi ESE 4.6 mph - N/A   Scattered Clouds
4:54 PM 90.0 °F 94.5 °F 69.1 °F 50% 29.74 in 10.0 mi East 3.5 mph - N/A   Partly Cloudy
5:54 PM 90.0 °F 94.5 °F 69.1 °F 50% 29.74 in 10.0 mi Variable 3.5 mph - N/A   Clear
6:54 PM 84.9 °F 88.2 °F 68.0 °F 57% 29.75 in 10.0 mi SE 10.4 mph - N/A   Mostly Cloudy
7:54 PM 82.0 °F 85.5 °F 69.1 °F 65% 29.75 in 10.0 mi SSE 5.8 mph - N/A   Clear
8:54 PM 79.0 °F - 71.1 °F 77% 29.75 in 10.0 mi South 6.9 mph - N/A   Clear
9:54 PM 73.9 °F - 68.0 °F 82% 29.77 in 10.0 mi SSW 4.6 mph - N/A   Clear
10:54 PM 71.1 °F - 66.9 °F 87% 29.78 in 10.0 mi Calm Calm - N/A   Clear
11:54 PM 70.0 °F - 66.0 °F 87% 29.78 in 9.0 mi South 3.5 mph - N/A   Clear